#timestamp,LO_Frequency,Hit,StdDev 
1618035895.5,286046953.1,P
1618035915.4,286046951.1,P
1618035935.2,286046951.5,P
1618035955.0,286046948.9,Y
1618035955.9,286046948.9,P
1618035975.8,286046996.6,N
1618035995.6,286046995.3,N
1618036015.5,286046997.5,N
1618036035.3,286046997.7,N
1618036055.1,286046997.8,N
1618036075.9,286046995.4,N
1618036095.7,286046995.5,N
1618036115.5,286046994.2,N
1618036135.4,286046994.5,N
1618036155.2,286046993.4,N
1618036175.1,286046994.4,N
1618036176.0,286046994.4,N
1618036195.8,286046992.9,N
1618036215.6,286046992.8,N
1618036235.5,286046990.4,N
1618036255.3,286046988.8,N
1618036275.1,286046991.0,N
1618036295.9,286046990.4,N
1618036315.7,286046991.4,N
1618036335.6,286046988.5,N
1618036355.4,286046989.0,N
1618036375.2,286046989.4,N
1618036395.1,286046989.6,N
1618036396.0,286046989.6,N
1618036415.8,286046986.1,N
1618036435.6,286046987.6,N
1618036455.5,286046986.3,N
1618036475.3,286046983.7,N
1618036495.2,286046985.1,N
1618036515.9,286046982.6,N
1618036535.7,286046982.9,Y
1618036555.6,286046991.1,P
1618036575.4,286046991.1,P
1618036595.2,286046991.3,P
1618036615.1,286046990.6,Y
1618036616.0,286046990.6,P
1618036635.8,286046997.2,P
1618036655.7,286046995.4,N
1618036675.5,286046998.0,N
1618036695.3,286046994.9,N
1618036715.2,286046996.4,N
1618036735.0,286046996.4,N
1618036735.9,286046996.4,N
1618036755.7,286046994.1,N
1618036775.6,286046992.0,Y
1618036795.4,286046999.5,P
1618036815.3,286046995.0,N
1618036835.1,286046995.7,N
1618036855.8,286046996.1,N
1618036875.7,286046996.0,N
1618036895.5,286046994.3,Y
1618036915.4,286046997.2,P
1618036935.2,286046995.0,P
1618036955.0,286046995.2,P
1618036955.9,286046995.2,Y
1618036975.8,286047000.8,P
1618036995.6,286046998.6,N
1618037015.5,286046999.6,N
1618037035.3,286046997.9,N
1618037055.1,286046995.6,N
1618037075.9,286046996.1,N
1618037095.7,286046995.8,N
1618037115.5,286046996.3,N
1618037135.4,286046993.7,Y
1618037155.2,286046997.9,P
1618037175.1,286046995.7,P
1618037176.0,286046995.7,P
1618037195.8,286046995.6,Y
1618037215.6,286046996.6,P
1618037235.5,286046995.3,P
1618037255.3,286046993.3,P
1618037275.2,286046993.9,Y
1618037295.9,286046997.0,P
1618037315.7,286046997.4,P
1618037335.6,286046994.9,P
1618037355.4,286046996.1,Y
1618037375.3,286047000.9,P
1618037395.1,286046996.5,N
1618037396.0,286046996.5,N
1618037415.8,286046997.4,N
1618037435.7,286046995.1,N
1618037455.5,286046996.4,N
1618037475.3,286046995.9,N
1618037495.2,286046995.5,N
1618037515.0,286046994.2,Y
1618037515.9,286046994.2,P
1618037535.8,286046997.5,N
1618037555.6,286046997.9,N
1618037575.4,286046995.6,Y
1618037595.3,286046999.6,P
1618037615.1,286046997.3,N
1618037635.9,286046995.6,P
1618037655.7,286046993.4,Y
1618037675.5,286046997.4,P
1618037695.4,286046995.9,P
1618037715.2,286046995.7,P
1618037735.0,286046993.8,Y
1618037735.9,286046993.8,P
1618037755.8,286046995.6,P
1618037775.6,286046995.2,P
1618037795.5,286046993.3,Y
1618037815.3,286046998.8,P
1618037835.1,286046999.0,N
1618037855.9,286046997.5,N
1618037875.7,286046997.1,N
1618037895.6,286046993.8,Y
1618037915.4,286046995.3,P
1618037935.2,286046993.3,P
1618037955.1,286046994.5,P
1618037956.0,286046994.5,Y
1618037975.8,286046999.1,P
1618037995.6,286046996.9,N
